Details From LIEE - Cagliari Elmas
To LOWS - Salzburg Maxglan
Flight Number -
Tags decoded
Created
Modified
Stats Distance 592 nm / 1,097 km
Max Altitude 0 ft / 0 m
Waypoints 17
Social Downloads 2
Likes 0
Share VATSIM

Download

Looking for another format? Having issues loading an existing format? Contact us
Advertisement - Login to hide

Notes

Requested: LIEE KOVAS UQ125 ELB UL12 LUTOR UZ909 KREVA UM738 ADOSA UM736 BZO UM726 KOGOL UN871 BADVI UL725 UNKEN LOWS Unmatched points: UQ125 UZ909 UM736 UN871 UL725

Route

LIEE KOVAS ELB UL12 LUTOR KREVA UM738 ADOSA BZO UM726 KOGOL BADVI UNKEN LOWS

ID Type Via Altitude Latitude Longitude Leg Dist Tot Dist Heading (true) Name
O LIEE APT - 0 ft / 0 m 39.25147˚ 9.05429˚ - 0 nm - Cagliari Elmas
KOVAS FIX - 0 ft / 0 m 39.64556˚ 9.07056˚ 23 nm 23 nm 2° / 2° -
ELB NDB - 0 ft / 0 m 42.73250˚ 10.39389˚ 194 nm 218 nm 17° / 18° ELBA NDB
MAREL FIX UL12 (AWY-HI) 0 ft / 0 m 43.28194˚ 10.65139˚ 34 nm 253 nm 19° / 19° -
GINAR FIX UL12 (AWY-HI) 0 ft / 0 m 43.63250˚ 10.81611˚ 22 nm 275 nm 19° / 19° -
FRZ VOR UL12 (AWY-HI) 0 ft / 0 m 44.02718˚ 11.00331˚ 25 nm 300 nm 19° / 19° FIRENZE VORTAC
LUTOR FIX UL12 (AWY-HI) 0 ft / 0 m 44.48806˚ 11.36083˚ 31 nm 332 nm 29° / 29° -
KREVA FIX - 0 ft / 0 m 44.77444˚ 11.23500˚ 18 nm 350 nm 343° / 343° -
OSTEG FIX UM738 (AWY-HI) 0 ft / 0 m 45.17861˚ 11.13889˚ 24 nm 374 nm 350° / 350° -
ADOSA FIX UM738 (AWY-HI) 0 ft / 0 m 45.64444˚ 11.02639˚ 28 nm 403 nm 350° / 350° -
BZO NDB - 0 ft / 0 m 46.46389˚ 11.32222˚ 50 nm 454 nm 14° / 14° BOLZANO NDB
BRENO FIX UM726 (AWY-HI) 0 ft / 0 m 46.98000˚ 11.37667˚ 31 nm 485 nm 4° / 4° -
INN NDB UM726 (AWY-HI) 0 ft / 0 m 47.23001˚ 11.40187˚ 15 nm 500 nm 4° / 4° INNSBRUCK NDB
KOGOL FIX UM726 (AWY-HI) 0 ft / 0 m 47.62139˚ 11.36806˚ 23 nm 523 nm 357° / 357° -
BADVI FIX - 0 ft / 0 m 47.73083˚ 11.94528˚ 24 nm 547 nm 74° / 74° -
UNKEN FIX - 0 ft / 0 m 47.69014˚ 12.69687˚ 30 nm 578 nm 94° / 95° -
O LOWS APT - 0 ft / 0 m 47.79333˚ 13.00433˚ 13 nm 592 nm 63° / 64° Salzburg Maxglan

Altitude Profile

Advertisement - Login to hide

Weather


0- 5 10 15 20 25 30 35+ Temperature / ° C

Clouds and Precipitation
Forecast for 2018-05-27 00:00 UTC. Updated 3 hours ago

Ground ~20,000 ft ~40,000 ft Winds

LIEE

Details ICAO LIEE (CAG)
Name Cagliari Elmas
Region Italy
Timezone Europe/Rome (UTC+2.0)
Stats Elevation 13 ft / 4 m (AMSL)
Location 39.251475° 9.054291°
Runways 1
Magnetic Variation 2.343° E

METAR

LIEE 270150Z 15008KT CAVOK 21/16 Q1016

Decode

TAF

TAF LIEE 262300Z 2700/2724 15013KT CAVOK BECMG 2718/2720 VRB05KT= TAF LIEO 262300Z 2700/2724 VRB04KT CAVOK BECMG 2708/2710 09014KT BECMG 2718/2720 VRB05KT

Decode

Departure Runways

ID Width Length Bearing (true) Bearing (mag) Surface Threshold Offset Overrun Length
14 148 ft / 45 m 9,157 ft / 2,791 m 138.08° 135.74° Asphalt 0 ft / 0 m 187 ft / 57 m
32 148 ft / 45 m 9,157 ft / 2,791 m 318.09° 315.75° Asphalt 0 ft / 0 m 0 ft / 0 m

LOWS

Details ICAO LOWS (SZG)
Name Salzburg Maxglan
Region Austria
Timezone Europe/Vienna (UTC+2.0)
Stats Elevation 1,411 ft / 430 m (AMSL)
Location 47.793333° 13.004333°
Runways 1
Magnetic Variation 3.481° E

METAR

LOWS 270150Z AUTO 13003KT 100V160 9999 SCT250 14/11 Q1020

Decode

TAF

TAF LOWS 262315Z 2700/2724 15005KT CAVOK TX28/2713Z TN15/2703Z BECMG 2707/2709 32006KT 9999 FEW060 BKN300 TEMPO 2714/2718 SCT060 FEW060TCU PROB30 TEMPO 2715/2718 VRB15G25KT TSRA FEW060CB BKN070 BECMG 2718/2720 15006KT CAVOK

Decode

Destination Runways

ID Width Length Bearing (true) Bearing (mag) Surface Threshold Offset Overrun Length
16 148 ft / 45 m 9,024 ft / 2,751 m 157.08° 153.60° Concrete 656 ft / 200 m 0 ft / 0 m
34 148 ft / 45 m 9,024 ft / 2,751 m 337.09° 333.61° Concrete 787 ft / 240 m 0 ft / 0 m

Approach Navaids

Runway Type Ident Frequency Range Bearing (true) Bearing (mag) Slope Elevation
16 Localiser OES 109.90 MHz 18 nm / 33 km 157.53° 154.05° - 1,411 ft / 430 m (AMSL)
16 Glidescope OES 109.90 MHz 10 nm / 19 km 157.09° 153.60° 3.00° 1,446 ft / 441 m (AMSL)
16 DME OES 109.90 MHz 18 nm / 33 km - - - 1,446 ft / 441 m (AMSL)

Popular Alternatives